Terminal Aerodrome Forecast
Issued by NWS

Home | Current Version | Previous Version | Text Only | Print | Product List | Glossary On
Versions: 1 2 3 4 5 6 7 8 9 10 11 12 13 14 15 16 17 18
000
FTUS42 KTAE 022300
TAFDHN
TAF
KDHN 022330Z 0300/0324 00000KT P6SM SCT025
     FM030200 11003KT 4SM BR OVC015
     FM030900 00000KT 1/2SM FG OVC002
      TEMPO 0309/0313 1/4SM FG
     FM031400 15007KT P6SM OVC007
     FM032000 18010KT P6SM SCT025 BKN050=

USA.gov is the U.S. government's official web portal to all federal, state and local government web resources and services.